This demonstration page uses our WeatherBlox Daily Observations layout. Learn more.

Left ArrowRight Arrow

34.02893, -84.19858

Hourly Observations for April 12, 2022

Temp ( °F °C ) Dew Point ( °F °C ) Humidity (%) Winds ( mph kmh ) Pressure ( in mb ) Visibility ( mi km ) Precip ( " mm )
12:53 am 00:53 Cloudy 54 12.2 47 8.3 77 77 Calm 30.10 1019 10 16 0.00 0.00
1:53 am 01:53 Cloudy 56 13.3 48 8.9 75 75 Calm 30.10 1019 10 16 0.00 0.00
2:53 am 02:53 Mostly Clear 53 11.7 47 8.3 80 80 Calm 30.11 1020 10 16 0.00 0.00
3:53 am 03:53 Cloudy 53 11.7 48 8.9 83 83 Calm 30.11 1020 10 16 0.00 0.00
4:53 am 04:53 Mostly Cloudy 53 11.7 48 8.9 83 83 Calm 30.10 1019 10 16 0.00 0.00
5:53 am 05:53 Cloudy 53 11.7 49 9.4 86 86 Calm 30.12 1020 10 16 0.00 0.00
6:53 am 06:53 Cloudy 53 11.7 50 10 89 89 Calm 30.13 1020 10 16 0.00 0.00
7:53 am 07:53 Mostly Cloudy 55 12.8 51 10.6 87 87 Calm 30.14 1021 10 16 0.00 0.00
8:53 am 08:53 Cloudy 60 15.6 53 11.7 78 78 Calm 30.15 1021 10 16 0.00 0.00
9:53 am 09:53 Mostly Cloudy 65 18.3 56 13.3 73 73 SSW 8 13 30.15 1021 10 16 0.00 0.00
10:53 am 10:53 Partly Cloudy 66 18.9 57 13.9 73 73 S 7 11 30.16 1021 10 16 0.00 0.00
11:53 am 11:53 Mostly Sunny 72 22.2 57 13.9 59 59 SSW 6 9 30.16 1022 10 16 0.00 0.00
12:53 pm 12:53 Sunny 75 23.9 56 13.3 52 52 SSW 14 22 30.14 1021 10 16 0.00 0.00
1:53 pm 13:53 Sunny 77 25 57 13.9 50 50 S 10 17 30.11 1020 10 16 0.00 0.00
2:53 pm 14:53 Partly Cloudy 79 26.1 56 13.3 45 45 S 13 20 30.09 1019 10 16 0.00 0.00
3:53 pm 15:53 Mostly Cloudy 79 26.1 58 14.4 49 49 S 12 19 30.08 1019 10 16 0.00 0.00
4:53 pm 16:53 Mostly Cloudy 78 25.6 57 13.9 48 48 SSW 8 13 30.07 1018 10 16 0.00 0.00
5:53 pm 17:53 Mostly Sunny 79 26.1 56 13.3 45 45 SSE 9 15 30.06 1018 10 16 0.00 0.00
6:53 pm 18:53 Sunny 78 25.6 54 12.2 43 43 S 10 17 30.07 1018 10 16 0.00 0.00
7:53 pm 19:53 Sunny 74 23.3 53 11.7 48 48 S 5 7 30.06 1018 10 16 0.00 0.00
8:53 pm 20:53 Clear 71 21.7 54 12.2 55 55 SSE 5 7 30.05 1018 10 16 0.00 0.00
9:53 pm 21:53 Clear 69 20.6 55 12.8 61 61 Calm 30.06 1018 10 16 0.00 0.00
10:53 pm 22:53 Clear 67 19.4 55 12.8 66 66 SSE 3 6 30.07 1018 10 16 0.00 0.00
11:53 pm 23:53 Clear 67 19.4 55 12.8 66 66 S 5 7 30.06 1018 10 16 0.00 0.00

Powered by AerisWeather